This is the latest recevied weather packets stored in our database for station/object DG1ABU-11. If no packets are shown the sender has not sent any weather packets the latest 10 day(s).
| Time | Temp. | Humidity | Pressure | Rain* | Wind** | Luminosity | Snow |
|---|---|---|---|---|---|---|---|
| 1777514522 | 6.11° C | 38% | 1032.5 hPa | - | - | - | - |
| 1777513622 | 6.11° C | 37% | 1032.4 hPa | - | - | - | - |
| 1777512722 | 6.67° C | 37% | 1032.3 hPa | - | - | - | - |
| 1777511822 | 6.67° C | 37% | 1032.2 hPa | - | - | - | - |
| 1777510921 | 7.22° C | 36% | 1032.1 hPa | - | - | - | - |
| 1777510021 | 7.22° C | 36% | 1032.1 hPa | - | - | - | - |
| 1777509121 | 7.78° C | 35% | 1032.1 hPa | - | - | - | - |
| 1777508221 | 7.78° C | 35% | 1032 hPa | - | - | - | - |
| 1777507321 | 7.78° C | 35% | 1031.9 hPa | - | - | - | - |
| 1777506421 | 8.33° C | 35% | 1031.9 hPa | - | - | - | - |
| 1777505521 | 8.33° C | 34% | 1031.9 hPa | - | - | - | - |
| 1777504621 | 8.89° C | 34% | 1031.8 hPa | - | - | - | - |
| 1777503721 | 9.44° C | 34% | 1031.8 hPa | - | - | - | - |
| 1777502821 | 9.44° C | 33% | 1031.9 hPa | - | - | - | - |
| 1777501921 | 10° C | 33% | 1031.9 hPa | - | - | - | - |
| 1777501021 | 10° C | 33% | 1031.7 hPa | - | - | - | - |
| 1777500121 | 10.56° C | 32% | 1031.6 hPa | - | - | - | - |
| 1777499221 | 10.56° C | 32% | 1031.5 hPa | - | - | - | - |
| 1777498321 | 11.11° C | 32% | 1031.5 hPa | - | - | - | - |
| 1777497421 | 11.67° C | 32% | 1031.4 hPa | - | - | - | - |
| 1777496521 | 11.67° C | 31% | 1031.2 hPa | - | - | - | - |
| 1777495621 | 12.22° C | 31% | 1031.2 hPa | - | - | - | - |
| 1777494720 | 12.78° C | 30% | 1031.1 hPa | - | - | - | - |
| 1777493820 | 13.33° C | 30% | 1030.8 hPa | - | - | - | - |
| 1777492920 | 13.89° C | 30% | 1030.8 hPa | - | - | - | - |
* Rain since midnight (hover to see other rain measurements)
** Current wind speed in m/s (hover to see current wind gust speed)